#timestamp,LO_Frequency,Hit 
1599451215.2,286046999.8,N
1599451235.0,286046999.8,N
1599451235.9,286046999.8,N
1599451255.8,286047001.0,N
1599451275.6,286047000.0,N
1599451295.4,286047000.3,N
1599451315.3,286047002.7,N
1599451335.1,286046999.9,N
1599451355.8,286047002.5,N
1599451375.7,286046999.8,N
1599451395.5,286047000.5,N
1599451415.3,286047002.7,N
1599451435.2,286047000.0,N
1599451455.0,286047000.9,N
1599451455.9,286047000.9,N
1599451475.7,286046999.9,N
1599451495.6,286047002.7,N
1599451515.4,286047000.2,N
1599451535.2,286047002.5,N
1599451555.1,286047000.2,N
1599451556.0,286047000.2,N
1599451575.8,286047002.5,N
1599451595.6,286047000.2,N
1599451615.5,286047000.8,N
1599451635.3,286046999.9,N
1599451655.1,286046999.7,N
1599451675.9,286047000.1,N
1599451695.7,286047001.2,N
1599451715.5,286047002.6,N
1599451735.4,286047000.9,N
1599451755.2,286047001.1,N
1599451775.0,286047000.0,N
1599451775.9,286047000.0,N
1599451795.8,286047000.4,N
1599451815.6,286046999.7,N
1599451835.4,286047002.4,N
1599451855.3,286047000.4,N
1599451875.1,286047000.1,N
1599451876.0,286047000.1,N
1599451895.8,286047000.0,N
1599451915.7,286047000.3,N
1599451935.5,286047000.6,N
1599451955.3,286047000.8,N
1599451975.2,286046998.2,N
1599451995.9,286046998.3,N
1599452015.7,286046998.4,N
1599452035.6,286046998.2,N
1599452055.4,286047001.1,N
1599452075.2,286046998.3,N
1599452095.0,286046998.3,N
1599452096.0,286046998.3,N
1599452115.8,286047000.8,N
1599452135.6,286046998.8,N
1599452155.4,286046998.5,N
1599452175.3,286046998.1,N
1599452195.1,286046999.6,N
1599452215.8,286046996.9,N
1599452235.7,286046996.7,N
1599452255.5,286046999.4,N
1599452275.3,286046998.8,N
1599452295.2,286046999.4,N
1599452315.0,286046999.0,N
1599452315.9,286046999.0,N
1599452335.7,286046997.1,N
1599452355.6,286046999.5,N
1599452375.4,286046997.1,N
1599452395.2,286046997.5,N
1599452415.1,286046997.8,N
1599452416.0,286046997.8,N
1599452435.8,286046997.3,N
1599452455.6,286046997.1,N
1599452475.5,286046996.8,N
1599452495.3,286046997.9,N
1599452515.1,286046997.6,N
1599452535.9,286046997.1,N
1599452555.7,286046997.1,N
1599452575.6,286046995.3,P
1599452595.4,286046998.9,N
1599452615.2,286046999.1,N
1599452635.0,286046996.5,N
1599452636.0,286046996.5,N
1599452655.8,286046999.4,N
1599452675.6,286046998.5,N
1599452695.5,286046998.3,N
1599452715.3,286046999.1,N
1599452735.1,286046998.9,N
1599452755.8,286046998.3,N
1599452775.7,286046998.4,N
1599452795.5,286046998.9,N
1599452815.3,286046996.7,N
1599452835.2,286046999.1,N
1599452855.0,286046998.7,N
1599452855.9,286046998.7,N
1599452875.7,286046999.6,N
1599452895.6,286046998.7,N
1599452915.4,286046996.6,P
1599452935.3,286047000.6,N
1599452955.1,286047000.8,N
1599452956.0,286047000.8,N
1599452975.8,286046998.9,N
1599452995.7,286046998.9,N
1599453015.5,286046999.3,N
1599453035.3,286046999.0,N
1599453055.1,286046997.0,N
1599453075.9,286046998.8,N
1599453095.7,286046996.8,N
1599453115.5,286046996.8,N
1599453135.4,286046998.9,N
1599453155.2,286046996.5,N
1599453175.0,286046996.9,N
1599453176.0,286046996.9,N
1599453195.8,286046995.3,P
1599453215.6,286046998.2,N
1599453235.5,286047000.9,N
1599453255.3,286047001.2,N
1599453275.1,286046999.0,N
1599453295.9,286046999.1,N
1599453315.7,286046999.2,N
1599453335.5,286046999.6,N
1599453355.4,286046999.4,N
1599453375.2,286046998.5,N
1599453395.0,286046999.0,N
1599453395.9,286046999.0,N
1599453415.8,286047000.1,N
1599453435.6,286047000.4,N
1599453455.4,286047000.4,N
1599453475.3,286047002.8,N
1599453495.1,286046999.7,N
1599453496.0,286046999.7,N
1599453515.8,286047002.7,N
1599453535.7,286047002.6,N
1599453555.5,286047001.9,N
1599453575.3,286047002.7,N
1599453595.1,286047002.5,N
1599453615.9,286047001.9,N
1599453635.7,286047001.9,N
1599453655.5,286047002.3,N
1599453675.4,286047001.3,N
1599453695.2,286047001.9,N
1599453715.0,286047004.4,N
1599453715.9,286047004.4,N
1599453735.8,286047002.0,N
1599453755.6,286047001.9,N
1599453775.4,286047003.0,N
1599453795.3,286047003.7,N
1599453815.1,286047004.8,N
1599453835.9,286047005.8,P
1599453855.7,286047003.4,N
1599453875.5,286047005.5,P
1599453895.3,286047003.4,N
1599453915.2,286047006.0,P
1599453935.0,286047001.0,N
1599453935.9,286047001.0,N
1599453955.8,286047000.2,N
1599453975.6,286047000.9,N
1599453995.4,286047000.0,N
1599454015.3,286046999.9,N
1599454035.1,286047001.2,N
1599454055.8,286047000.1,N
1599454075.7,286047002.3,N
1599454095.5,286047001.0,N
1599454115.3,286047000.5,N
1599454135.2,286047000.6,N
1599454155.9,286047000.9,N
1599454175.7,286047000.0,N
1599454195.6,286047001.0,N
1599454215.4,286047001.0,N
1599454235.2,286047000.0,N
1599454255.1,286046999.9,N
1599454256.0,286046999.9,N
1599454275.8,286047000.1,N
1599454295.6,286047000.2,N
1599454315.5,286047000.0,N
1599454335.3,286047000.0,N
1599454355.1,286046999.7,N
1599454375.9,286047001.1,N
1599454395.7,286047000.5,N
1599454415.5,286046999.9,N
1599454435.4,286047001.2,N
1599454455.2,286047000.3,N
1599454475.0,286047000.1,N
1599454475.9,286047000.1,N
1599454495.8,286047002.8,P
1599454515.6,286047000.2,N
1599454535.4,286047000.6,N
1599454555.3,286047001.2,N
1599454575.1,286047000.0,N
1599454595.8,286047000.6,N
1599454615.7,286047000.9,N
1599454635.5,286047000.9,N
1599454655.3,286046998.1,N
1599454675.2,286047000.3,N
1599454695.9,286047000.5,N
1599454715.7,286047000.3,N
1599454735.6,286047000.9,N
1599454755.4,286047000.4,N
1599454775.2,286047000.6,N
1599454795.1,286046999.9,N
1599454796.0,286046999.9,N
